Total_Precipitation_Accumulation
0.22 0.23 0.21 0.20 0.19 0.17 0.16 0.16 0.15 0.13 0.11 0.10 0.08 0.07 0.06 0.05 0.05 0.06 0.06 0.06 0.07 0.07 0.07 0.07 0.08 0.08 0.08 0.08 0.08 0.09 0.09 0.14 0.18 0.09 0.04 0.04 0.07 0.10 0.12 0.16 0.15 0.14 0.12
0.15 0.13 0.13 0.13 0.12 0.11 0.11 0.11 0.10 0.09 0.08 0.08 0.08 0.07 0.06 0.06 0.07 0.07 0.07 0.07 0.08 0.08 0.07 0.07 0.07 0.08 0.09 0.08 0.08 0.08 0.09 0.14 0.22 0.21 0.12 0.09 0.10 0.12 0.16 0.17 0.12 0.10 0.13
0.11 0.10 0.10 0.10 0.10 0.10 0.10 0.09 0.09 0.09 0.08 0.07 0.06 0.05 0.04 0.04 0.05 0.06 0.06 0.07 0.06 0.06 0.06 0.05 0.05 0.06 0.08 0.08 0.10 0.11 0.13 0.15 0.22 0.26 0.17 0.13 0.11 0.10 0.17 0.19 0.19 0.22 0.14
0.10 0.10 0.11 0.11 0.10 0.10 0.10 0.09 0.07 0.06 0.05 0.04 0.03 0.03 0.03 0.03 0.03 0.03 0.03 0.03 0.03 0.03 0.03 0.04 0.05 0.06 0.10 0.13 0.13 0.14 0.18 0.20 0.21 0.23 0.20 0.14 0.13 0.13 0.23 0.31 0.28 0.23 0.18
0.12 0.12 0.12 0.11 0.09 0.08 0.07 0.06 0.05 0.04 0.03 0.02 0.02 0.02 0.02 0.02 0.01 0.01 0.01 0.01 0.01 0.01 0.02 0.03 0.04 0.07 0.12 0.15 0.16 0.18 0.22 0.26 0.26 0.29 0.26 0.21 0.16 0.20 0.29 0.34 0.31 0.22 0.16
0.15 0.14 0.12 0.10 0.09 0.07 0.05 0.04 0.04 0.03 0.03 0.02 0.02 0.01 0.01 0.01 0.00 0.00 0.00 0.00 0.01 0.02 0.04 0.05 0.04 0.05 0.07 0.09 0.11 0.15 0.22 0.29 0.33 0.37 0.34 0.28 0.21 0.28 0.37 0.41 0.41 0.35 0.25
0.18 0.16 0.15 0.13 0.10 0.08 0.05 0.03 0.03 0.02 0.02 0.01 0.01 0.01 0.02 0.01 0.00 0.00 0.00 0.00 0.02 0.05 0.07 0.08 0.06 0.06 0.10 0.12 0.11 0.09 0.12 0.18 0.32 0.45 0.45 0.35 0.32 0.38 0.51 0.52 0.46 0.43 0.36
0.21 0.18 0.14 0.11 0.09 0.06 0.03 0.02 0.02 0.01 0.01 0.02 0.02 0.02 0.04 0.02 0.00 0.00 0.00 0.01 0.04 0.06 0.07 0.08 0.11 0.14 0.13 0.10 0.08 0.08 0.13 0.23 0.33 0.39 0.44 0.40 0.41 0.47 0.57 0.58 0.51 0.43 0.32
0.18 0.13 0.09 0.07 0.05 0.03 0.02 0.02 0.02 0.02 0.02 0.02 0.02 0.03 0.05 0.05 0.01 0.00 0.00 0.02 0.03 0.03 0.04 0.05 0.09 0.12 0.12 0.11 0.11 0.14 0.18 0.27 0.30 0.41 0.48 0.54 0.59 0.58 0.54 0.51 0.54 0.53 0.44
0.09 0.05 0.04 0.04 0.02 0.02 0.02 0.02 0.02 0.02 0.02 0.02 0.02 0.03 0.06 0.08 0.02 0.00 0.01 0.02 0.03 0.03 0.03 0.06 0.09 0.09 0.11 0.12 0.12 0.20 0.28 0.33 0.47 0.62 0.72 0.77 0.72 0.64 0.57 0.54 0.59 0.62 0.60
0.04 0.03 0.04 0.03 0.03 0.02 0.02 0.03 0.03 0.03 0.05 0.05 0.05 0.05 0.07 0.05 0.02 0.00 0.01 0.03 0.05 0.06 0.08 0.13 0.17 0.14 0.14 0.12 0.14 0.24 0.37 0.46 0.67 0.89 0.89 0.74 0.58 0.49 0.46 0.47 0.48 0.54 0.60
0.04 0.04 0.04 0.03 0.01 0.01 0.04 0.05 0.04 0.06 0.07 0.07 0.07 0.07 0.07 0.07 0.04 0.01 0.01 0.02 0.04 0.09 0.17 0.19 0.21 0.20 0.17 0.17 0.23 0.36 0.46 0.63 0.82 0.92 0.80 0.61 0.48 0.41 0.37 0.35 0.36 0.41 0.46
0.07 0.07 0.05 0.04 0.02 0.02 0.04 0.05 0.06 0.06 0.06 0.06 0.06 0.06 0.06 0.07 0.06 0.01 0.01 0.02 0.04 0.09 0.19 0.24 0.26 0.24 0.26 0.36 0.45 0.54 0.64 0.76 0.86 0.79 0.63 0.54 0.46 0.39 0.35 0.33 0.32 0.35 0.38
0.10 0.09 0.08 0.07 0.04 0.03 0.03 0.03 0.05 0.05 0.06 0.06 0.06 0.06 0.07 0.08 0.07 0.05 0.05 0.05 0.08 0.12 0.19 0.31 0.41 0.45 0.48 0.56 0.63 0.70 0.75 0.81 0.76 0.62 0.51 0.46 0.40 0.35 0.34 0.31 0.30 0.31 0.34
0.10 0.09 0.08 0.05 0.04 0.05 0.05 0.02 0.02 0.03 0.01 0.03 0.05 0.05 0.08 0.08 0.07 0.08 0.09 0.11 0.15 0.20 0.23 0.35 0.46 0.51 0.55 0.59 0.59 0.64 0.67 0.65 0.63 0.55 0.48 0.41 0.37 0.33 0.33 0.31 0.30 0.28 0.31
0.07 0.07 0.07 0.04 0.04 0.05 0.07 0.08 0.03 0.01 0.00 0.01 0.02 0.04 0.05 0.08 0.07 0.06 0.09 0.13 0.18 0.24 0.30 0.43 0.54 0.59 0.61 0.61 0.59 0.59 0.60 0.57 0.53 0.49 0.47 0.42 0.38 0.34 0.34 0.32 0.30 0.29 0.31
0.04 0.06 0.05 0.05 0.05 0.05 0.07 0.13 0.16 0.09 0.02 0.01 0.02 0.04 0.05 0.07 0.07 0.06 0.08 0.13 0.16 0.23 0.29 0.43 0.58 0.70 0.71 0.65 0.59 0.56 0.61 0.61 0.58 0.54 0.48 0.43 0.37 0.33 0.30 0.30 0.29 0.28 0.28
0.04 0.05 0.04 0.06 0.05 0.05 0.06 0.09 0.15 0.18 0.16 0.12 0.07 0.05 0.06 0.08 0.10 0.10 0.11 0.14 0.17 0.21 0.31 0.45 0.57 0.64 0.66 0.66 0.60 0.58 0.61 0.63 0.60 0.52 0.46 0.42 0.37 0.31 0.27 0.29 0.28 0.23 0.21
0.03 0.05 0.04 0.03 0.04 0.04 0.05 0.06 0.08 0.11 0.15 0.16 0.13 0.09 0.08 0.10 0.14 0.15 0.15 0.15 0.19 0.25 0.33 0.41 0.49 0.51 0.49 0.50 0.49 0.49 0.53 0.57 0.53 0.44 0.40 0.38 0.34 0.29 0.27 0.26 0.23 0.17 0.16
0.02 0.01 0.01 0.02 0.03 0.03 0.03 0.05 0.05 0.08 0.12 0.15 0.13 0.10 0.11 0.15 0.20 0.21 0.17 0.14 0.16 0.20 0.27 0.36 0.42 0.40 0.38 0.36 0.34 0.33 0.36 0.39 0.36 0.33 0.31 0.29 0.29 0.27 0.24 0.21 0.18 0.16 0.15
0.01 0.01 0.01 0.01 0.02 0.03 0.02 0.02 0.03 0.05 0.08 0.11 0.10 0.09 0.14 0.17 0.22 0.25 0.26 0.24 0.22 0.22 0.23 0.25 0.30 0.33 0.32 0.29 0.25 0.22 0.23 0.24 0.24 0.25 0.26 0.26 0.25 0.23 0.18 0.14 0.11 0.09 0.09
0.00 0.01 0.01 0.02 0.02 0.02 0.01 0.00 0.01 0.02 0.04 0.07 0.08 0.09 0.14 0.15 0.18 0.21 0.27 0.32 0.31 0.29 0.25 0.23 0.23 0.26 0.29 0.28 0.22 0.18 0.17 0.18 0.20 0.23 0.24 0.24 0.21 0.17 0.13 0.10 0.07 0.05 0.05
0.00 0.00 0.00 0.01 0.00 0.00 0.00 0.00 0.00 0.01 0.03 0.05 0.07 0.09 0.10 0.13 0.16 0.20 0.25 0.30 0.32 0.31 0.26 0.22 0.22 0.25 0.27 0.27 0.23 0.17 0.14 0.14 0.16 0.18 0.23 0.23 0.19 0.14 0.10 0.07 0.04 0.04 0.03
0.00 0.00 0.00 0.00 0.00 0.00 0.00 0.00 0.00 0.00 0.01 0.02 0.04 0.06 0.09 0.12 0.14 0.17 0.21 0.25 0.29 0.30 0.29 0.27 0.26 0.26 0.25 0.24 0.21 0.13 0.10 0.11 0.12 0.14 0.18 0.20 0.17 0.12 0.08 0.06 0.04 0.03 0.02
0.00 0.00 0.00 0.00 0.00 0.00 0.00 0.00 0.00 0.00 0.00 0.01 0.02 0.03 0.04 0.06 0.09 0.11 0.15 0.19 0.22 0.25 0.25 0.24 0.24 0.22 0.20 0.17 0.14 0.10 0.09 0.11 0.12 0.12 0.14 0.15 0.12 0.10 0.08 0.06 0.04 0.03 0.03
0.00 0.00 0.00 0.00 0.00 0.00 0.00 0.00 0.00 0.00 0.01 0.01 0.01 0.02 0.02 0.03 0.04 0.06 0.08 0.09 0.12 0.16 0.19 0.20 0.20 0.17 0.12 0.08 0.07 0.07 0.07 0.05 0.05 0.06 0.10 0.13 0.11 0.09 0.08 0.07 0.04 0.03 0.02